User: anonymous   Login
Location: Newark
(51.0000°N, 11.4100°E)
Time: 16:56:33
(UTC+00:00)
Language:

A-11 Canister half - Orbit

View from above orbital plane
View from above orbital plane
View from above satellite
View from above satellite

Ground track
Ground track

The orbit data is extracted from the following two-line orbital elements,

1    51U 60009C   19322.34926572 -.00000092  00000-0 -78521-4 0  9996
2    51  47.2131 283.6123 0107422 253.8466 105.0476 12.18274927638228
Epoch (UTC): 18 November 2019 08:22:56
Eccentricity: 0.0107422
inclination: 47.2131°
perigee height: 1514 km
apogee height: 1686 km
right ascension of ascending node: 283.6123°
argument of perigee: 253.8466°
revolutions per day: 12.18274927
mean anomaly at epoch: 105.0476°
orbit number at epoch: 63822

The dashed part of the orbit path shows where the satellite is in the earth's shadow,  

DLR